Regional Weather Roundup
Issued by NWS

Home | Current Version | Previous Version | Text Only | Print | Product List | Glossary Off
Versions: 1 2 3 4 5 6 7 8 9 10 11 12 13 14 15 16 17 18 19 20 21 22 23 24 25 26 27 28 29 30 31 32 33 34 35 36 37 38 39 40 41 42 43 44 45 46 47 48 49 50

661
ASUS43 KFSD 241502
RWRSD

WEATHER ROUNDUP FOR SOUTH DAKOTA
NATIONAL WEATHER SERVICE SIOUX FALLS SD
1000 AM CDT TUE MAY 24 2016

NOTE: "FAIR" INDICATES FEW OR NO CLOUDS BELOW 12,000 FEET WITH NO
SIGNIFICANT WEATHER AND/OR OBSTRUCTIONS TO VISIBILITY.


SDZ001>005-009-010-012>017-241600-
NORTHWEST AND NORTH CENTRAL SOUTH DAKOTA

CITY           SKY/WX    TMP DP  RH WIND       PRES   REMARKS
BUFFALO          N/A     62  40  44 VRB6      29.86R
FAITH            N/A     64  42  44 VRB5      29.90R
MOBRIDGE       SUNNY     64  47  53 CALM      29.87S
$$

SDZ012>016-024>037-041>051-057-063-072>074-241600-
SOUTHWEST AND SOUTH CENTRAL SOUTH DAKOTA

CITY           SKY/WX    TMP DP  RH WIND       PRES   REMARKS
RAPID CTY ARPT SUNNY     62  39  42 VRB6      29.93R
PIERRE         SUNNY     63  51  65 E6        29.85S
CUSTER         SUNNY     56  32  40 E7        29.97R
PHILIP         SUNNY     62  48  60 NE8       29.89S
PINE RIDGE     SUNNY     61  41  47 CALM      29.92S
WINNER         FAIR      66  43  43 SW7       29.88R
$$

SDZ004>011-016>023-039-040-241600-
NORTHEAST SOUTH DAKOTA

CITY           SKY/WX    TMP DP  RH WIND       PRES   REMARKS
ABERDEEN       SUNNY     71  50  47 E17       29.86S
WATERTOWN      SUNNY     69  56  62 E10       29.85S
BROOKINGS      CLOUDY    63  61  93 MISG      29.86F
SISSETON         N/A     72  52  49 E10       29.84F
$$

SDZ017-020-022-023-036>040-048>070-241600-
SOUTHEAST SOUTH DAKOTA

CITY           SKY/WX    TMP DP  RH WIND       PRES   REMARKS
SIOUX FALLS    MOSUNNY   68  60  75 SW5       29.86R
HURON          SUNNY     67  57  70 CALM      29.85R
MITCHELL       SUNNY     70  56  61 CALM      29.85R
YANKTON        CLOUDY    66  57  72 CALM      29.84R
$$

ABBREVIATIONS USED IN REMARKS
   TC - TEMPERATURE IN CELSIUS
  WCI - WIND CHILL INDEX
   HX - HEAT INDEX
  VSB - VISIBILITY





USA.gov is the U.S. government's official web portal to all federal, state and local government web resources and services.